Lancaster, CA

2:10 PM PDT on July 23, 2017 (GMT -0700)
Gen Fox

Weather History for KWJF - April, 2013

Change the Weather History Date:

Tuesday, April 30, 2013

  Actual Average Record
Temperature  
Mean Temperature 73 °F 63 °F  
Max Temperature 86 °F 77 °F 92 °F (2006)
Min Temperature 60 °F 49 °F 32 °F (2011)
Degree Days  
Heating Degree Days 0    
Month to date heating degree days 107  
Since 1 July heating degree days 2685  
Cooling Degree Days 8    
Month to date cooling degree days 78  
Year to date cooling degree days 90  
Growing Degree Days 24 (Base 50)    
Moisture  
Dew Point 41 °F    
Average Humidity 35    
Maximum Humidity 52    
Minimum Humidity 18    
Precipitation  
Precipitation 0.00 in 0.01 in 0.11 in (1990)
Month to date precipitation 0.00 0.35  
Year to date precipitation 0.95 4.77  
Since 1 July precipitation 1.11  
Snow  
Snow 0.00 in - 0.00 in ()
Month to date snowfall 0.0  
Since 1 July snowfall 0.0  
Snow Depth 0.00 in    
Sea Level Pressure  
Sea Level Pressure 29.72 in    
Wind  
Wind Speed 21 mph (WSW)    
Max Wind Speed 31 mph    
Max Gust Speed 37 mph    
Visibility 10 miles    
Events      
T = Trace of Precipitation, MM = Missing Value Source: NWS Daily Summary

Daily Weather History Graph

Daily Weather History Graph

Search for Another Location

Airport or City:

Trip Planner

Search our weather history database for the weather conditions in past years. The results will help you decide how hot, cold, wet, or windy it might be!

Date:

Astronomy

Apr. 30, 2013 Rise Set
Actual Time 6:03 AM PDT 7:37 PM PDT
Civil Twilight 5:36 AM PDT 8:04 PM PDT
Nautical Twilight 5:04 AM PDT 8:36 PM PDT
Astronomical Twilight 4:30 AM PDT 9:10 PM PDT
Moon 12:01 AM PDT (4/30) 10:39 AM PDT (4/30)
Length of Visible Light 14h 28m
Length of Day
13h 34m
Waning Gibbous, 69% of the Moon is Illuminated
Apr 30
Waning Gibbous
May 2
Last Quarter
May 9
New
May 17
First Quarter
May 24
Full

Hourly Weather History & Observations

Time (PDT) Temp. Dew Point Humidity Pressure Visibility Wind Dir Wind Speed Gust Speed Precip Events Conditions
12:56 AM 69.1 °F 39.9 °F 35% 29.73 in 10.0 mi WSW 19.6 mph - N/A   Clear
1:56 AM 69.1 °F 39.9 °F 35% 29.71 in 10.0 mi WSW 17.3 mph - N/A   Clear
2:56 AM 68.0 °F 42.1 °F 39% 29.71 in 10.0 mi SW 15.0 mph - N/A   Clear
3:56 AM 66.9 °F 41.0 °F 39% 29.70 in 10.0 mi WSW 17.3 mph 20.7 mph N/A   Clear
4:56 AM 66.9 °F 37.9 °F 34% 29.70 in 10.0 mi WSW 16.1 mph - N/A   Clear
5:56 AM 66.9 °F 36.0 °F 32% 29.70 in 10.0 mi WSW 18.4 mph 24.2 mph N/A   Clear
6:56 AM 69.1 °F 33.1 °F 26% 29.71 in 10.0 mi WSW 17.3 mph - N/A   Clear
7:56 AM 73.9 °F 34.0 °F 23% 29.71 in 10.0 mi WSW 23.0 mph 27.6 mph N/A   Clear
8:56 AM 75.9 °F 35.1 °F 23% 29.72 in 10.0 mi WSW 23.0 mph - N/A   Clear
9:56 AM 79.0 °F 35.1 °F 20% 29.71 in 10.0 mi West 27.6 mph 33.4 mph N/A   Clear
10:56 AM 82.0 °F 37.0 °F 20% 29.72 in 10.0 mi West 25.3 mph 32.2 mph N/A   Clear
11:56 AM 82.9 °F 39.0 °F 21% 29.70 in 10.0 mi WSW 29.9 mph 36.8 mph N/A   Clear
12:56 PM 84.0 °F 39.0 °F 20% 29.70 in 10.0 mi WSW 27.6 mph 36.8 mph N/A   Clear
1:56 PM 86.0 °F 37.0 °F 18% 29.69 in 10.0 mi WSW 21.9 mph 31.1 mph N/A   Clear
2:56 PM 82.9 °F 44.1 °F 25% 29.69 in 10.0 mi SW 24.2 mph 31.1 mph N/A   Clear
3:56 PM 81.0 °F 45.0 °F 28% 29.69 in 10.0 mi WSW 21.9 mph 31.1 mph N/A   Clear
4:56 PM 78.1 °F 46.0 °F 32% 29.70 in 10.0 mi WSW 23.0 mph 32.2 mph N/A   Clear
5:56 PM 75.0 °F 46.9 °F 37% 29.71 in 10.0 mi WSW 20.7 mph 29.9 mph N/A   Clear
6:56 PM 69.1 °F 46.9 °F 45% 29.72 in 10.0 mi SW 19.6 mph 26.5 mph N/A   Clear
7:56 PM 64.9 °F 46.9 °F 52% 29.72 in 10.0 mi WSW 19.6 mph 25.3 mph N/A   Clear
8:56 PM 64.0 °F 45.0 °F 50% 29.75 in 10.0 mi WSW 19.6 mph 35.7 mph N/A   Clear
9:56 PM 62.1 °F 45.0 °F 53% 29.76 in 10.0 mi SW 19.6 mph 26.5 mph N/A   Clear
10:56 PM 63.0 °F 43.0 °F 48% 29.76 in 10.0 mi WSW 19.6 mph 26.5 mph N/A   Clear
11:56 PM 62.1 °F 41.0 °F 46% 29.77 in 10.0 mi WSW 18.4 mph 26.5 mph N/A   Clear